Vancouver, WA
on Wednesday, November 7, 2012

Wednesday
Previous Day Next Day
Daily Summary
 ActualAverageRecord
Temperature
Mean Temperature °F 48°F  
Max Temperature 57°F 56°F 67°F (1941)
Min Temperature 36°F 41°F 28°F (1895)
Degree Days
Heating Degree Days 18    
Month to date heating degree days 62  
Since 1 July heating degree days 381  
Cooling Degree Days 0    
Month to date cooling degree days 0  
Year to date cooling degree days 398  
Moisture
Dew Point 41°F   
Average Humidity 72    
Maximum Humidity 93    
Minimum Humidity 51    
Precipitation
Precipitation 0.00 in 0.18 in 2.48 in (1906)
Month to date precipitation 0.50 1.20  
Year to date precipitation 31.66 27.66  
Snow
Snow 0.00 in in in ()
Month to date snowfall 0.0  
Since 1 July snowfall 0.0  
Since 1 September snowfall 0.0  
Snow Depth 0.00 in   
Wind
Wind Speed 1 mph   
Max Wind Speed 14 mph   
Max Gust Speed 23 mph   
Visibility 5 miles   
Events Fog   

Key: T is trace of precipitation, MM is missing value
Source: NWS Daily Summary
Time(PST)TemperatureDew PointHumidity Pressure Visibility Wind DirectionWind SpeedGust SpeedPrecipitationEvents Conditions
12:53 AM 48.0°F 46.0°F 93% 30.12 in 10.0 miles Calm Calm - N/A   Clear
1:53 AM 45.0°F 43.0°F 93% 30.14 in 10.0 miles Calm Calm - N/A   Scattered Clouds
2:53 AM 46.9°F 45.0°F 93% 30.15 in 10.0 miles Calm Calm - N/A   Partly Cloudy
3:53 AM 45.0°F 43.0°F 93% 30.16 in 3.0 miles Calm Calm - N/A   Scattered Clouds
3:57 AM 44.6°F 42.8°F 93% 30.15 in 1.8 miles Calm Calm - N/A   Scattered Clouds
4:11 AM 42.8°F 42.8°F 100% 30.16 in 0.8 miles Calm Calm - N/A   Partly Cloudy
4:28 AM 42.8°F 42.8°F 100% 30.16 in 1.8 miles Calm Calm - N/A   Clear
4:30 AM 42.8°F 42.8°F 100% 30.16 in 4.0 miles Calm Calm - N/A   Partly Cloudy
4:35 AM 42.8°F 42.8°F 100% 30.16 in 1.5 miles Calm Calm - N/A   Partly Cloudy
4:37 AM 42.8°F 41.0°F 93% 30.16 in 0.8 miles Calm Calm - N/A   Partly Cloudy
4:53 AM 42.1°F 39.9°F 92% 30.17 in 1.0 miles Calm Calm - N/A   Scattered Clouds
5:01 AM 42.8°F 39.2°F 87% 30.17 in 0.5 miles Calm Calm - N/A Fog Fog
5:09 AM 42.8°F 42.8°F 100% 30.17 in 1.5 miles Calm Calm - N/A   Mostly Cloudy
5:11 AM 42.8°F 42.8°F 100% 30.17 in 3.0 miles Calm Calm - N/A   Mostly Cloudy
5:40 AM 42.8°F 41.0°F 93% 30.17 in 1.2 miles Calm Calm - N/A   Clear
5:43 AM 41.0°F 39.2°F 93% 30.17 in 0.8 miles Calm Calm - N/A   Mist
5:53 AM 42.1°F 39.9°F 92% 30.17 in 1.0 miles Calm Calm - N/A   Clear
5:56 AM 42.8°F 41.0°F 93% 30.17 in 2.0 miles Calm Calm - N/A   Clear
6:03 AM 39.2°F 39.2°F 100% 30.17 in 1.2 miles Calm Calm - N/A   Clear
6:14 AM 42.8°F 39.2°F 87% 30.17 in 2.5 miles Calm Calm - N/A   Clear
6:23 AM 41.0°F 39.2°F 93% 30.17 in 1.2 miles Calm Calm - N/A   Clear
6:32 AM 39.2°F 39.2°F 100% 30.17 in 0.8 miles Calm Calm - N/A   Clear
6:43 AM 42.8°F 39.2°F 87% 30.17 in 1.8 miles Calm Calm - N/A   Partly Cloudy
6:45 AM 42.8°F 39.2°F 87% 30.17 in 3.0 miles Calm Calm - N/A   Partly Cloudy
6:53 AM 41.0°F 39.0°F 93% 30.18 in 1.5 miles Calm Calm - N/A   Partly Cloudy
7:00 AM 41.0°F 39.2°F 93% 30.17 in 1.2 miles Calm Calm - N/A   Partly Cloudy
7:04 AM 41.0°F 39.2°F 93% 30.17 in 2.5 miles Calm Calm - N/A   Partly Cloudy
7:11 AM 41.0°F 39.2°F 93% 30.17 in 9.0 miles Calm Calm - N/A   Scattered Clouds
7:53 AM 44.1°F 43.0°F 96% 30.18 in 10.0 miles Calm Calm - N/A   Clear
8:53 AM 48.9°F 45.0°F 86% 30.18 in 10.0 miles Calm Calm - N/A   Clear
9:53 AM 52.0°F 43.0°F 71% 30.18 in 10.0 miles Calm Calm - N/A   Clear
10:53 AM 53.1°F 41.0°F 64% 30.17 in 10.0 miles Calm Calm - N/A   Partly Cloudy
11:53 AM 55.9°F 39.9°F 55% 30.16 in 10.0 miles Calm Calm - N/A   Clear
12:53 PM 55.9°F 37.0°F 49% 30.14 in 10.0 miles Variable 3.5 mph - N/A   Clear
1:53 PM 54.0°F 39.0°F 57% 30.13 in 10.0 miles NW 9.2 mph 23.0 mph N/A   Scattered Clouds
2:53 PM 51.1°F 39.0°F 63% 30.12 in 10.0 miles NNW 3.5 mph - N/A   Overcast
3:53 PM 53.1°F 37.0°F 55% 30.09 in 10.0 miles Calm Calm - N/A   Scattered Clouds
4:53 PM 51.1°F 37.9°F 61% 30.08 in 10.0 miles Calm Calm - N/A   Clear
5:53 PM 46.0°F 39.0°F 76% 30.06 in 10.0 miles Calm Calm - N/A   Mostly Cloudy
6:53 PM 44.1°F 39.0°F 82% 30.04 in 10.0 miles Calm Calm - N/A   Clear
7:53 PM 44.1°F 39.0°F 82% 30.03 in 10.0 miles Calm Calm - N/A   Partly Cloudy
8:53 PM 45.0°F 42.1°F 90% 30.01 in 10.0 miles Calm Calm - N/A   Partly Cloudy
9:53 PM 43.0°F 39.9°F 89% 29.99 in 10.0 miles Calm Calm - N/A   Mostly Cloudy
10:53 PM 39.0°F 37.0°F 93% 29.96 in 4.0 miles Calm Calm - N/A   Clear
11:53 PM 37.9°F 36.0°F 93% 29.95 in 6.0 miles Calm Calm - N/A   Partly Cloudy
Moon Phase
Nov. 07 Nov. 13 Nov. 20 Nov. 28 Dec. 06
Sunrise:06:59 AM (PST) Moon Rise:No Moon Rise/
Sunset:04:48 PM (PST) Moon Set:01:18 PM (PST)11/7

Copyright © 2014 The Weather Underground, Inc.